When you browse on this site, cookies collect data to enhance your experience and personalize the content and advertising you see.
Visit our Privacy Policy to learn more. By continuing to use the site, you agree to this use of cookies and data.
  • In Netherlands
  • List of Countries
  • For 7 days
  • Water Temperature
  • Weather Map
  • Weather Widgets
  • user-avatar
    Login

    Hourly Weather Hopor

    Today, 14 October, Monday

    Time Temperature Precipitation Wind Pressure Humidity
    00:00 +11°C° 0 mm 1 mps 658 mmHg 41%
    01:00 +11°C° 0 mm 1 mps 658 mmHg 40%
    02:00 +11°C° 0 mm 1 mps 658 mmHg 39%
    03:00 +10°C° 0 mm 1 mps 658 mmHg 38%
    04:00 +10°C° 0 mm 1 mps 658 mmHg 37%
    05:00 +10°C° 0 mm 1 mps 658 mmHg 37%
    06:00 +10°C° 0 mm 1 mps 658 mmHg 36%
    07:00 +12°C° 0 mm 1 mps 659 mmHg 34%
    08:00 +14°C° 0 mm 0 mps 660 mmHg 31%
    09:00 +16°C° 0 mm 0 mps 661 mmHg 28%
    10:00 +19°C° 0 mm 1 mps 661 mmHg 28%
    11:00 +20°C° 0 mm 1 mps 661 mmHg 27%
    12:00 +21°C° 0 mm 2 mps 661 mmHg 27%
    13:00 +20°C° 0 mm 2 mps 661 mmHg 29%
    14:00 +20°C° 0 mm 2 mps 661 mmHg 30%
    15:00 +20°C° 0 mm 2 mps 660 mmHg 32%
    16:00 +19°C° 0 mm 1 mps 660 mmHg 39%
    17:00 +16°C° 0 mm 1 mps 659 mmHg 46%
    18:00 +14°C° 0 mm 1 mps 658 mmHg 54%
    19:00 +14°C° 0 mm 1 mps 658 mmHg 53%
    20:00 +13°C° 0 mm 1 mps 658 mmHg 53%
    21:00 +13°C° 0 mm 1 mps 659 mmHg 53%
    22:00 +13°C° 0 mm 1 mps 658 mmHg 50%
    23:00 +13°C° 0 mm 1 mps 658 mmHg 46%

    Tomorrow, 15 October, Tuesday

    Time Temperature Precipitation Wind Pressure Humidity
    00:00 +13°C° 0 mm 2 mps 658 mmHg 43%
    01:00 +12°C° 0 mm 2 mps 657 mmHg 41%
    02:00 +12°C° 0 mm 2 mps 657 mmHg 38%
    03:00 +12°C° 0 mm 2 mps 657 mmHg 35%
    04:00 +12°C° 0 mm 2 mps 657 mmHg 33%
    05:00 +12°C° 0 mm 2 mps 656 mmHg 32%
    06:00 +10°C° 0 mm 2 mps 656 mmHg 30%
    07:00 +14°C° 0 mm 2 mps 657 mmHg 28%
    08:00 +16°C° 0 mm 1 mps 657 mmHg 27%
    09:00 +20°C° 0 mm 1 mps 658 mmHg 25%
    10:00 +21°C° 0 mm 1 mps 658 mmHg 24%
    11:00 +22°C° 0 mm 1 mps 658 mmHg 22%
    12:00 +23°C° 0 mm 2 mps 658 mmHg 21%
    13:00 +23°C° 0 mm 1 mps 658 mmHg 22%
    14:00 +23°C° 0 mm 1 mps 657 mmHg 23%
    15:00 +23°C° 0 mm 1 mps 657 mmHg 24%
    16:00 +21°C° 0 mm 1 mps 656 mmHg 30%
    17:00 +19°C° 0 mm 1 mps 656 mmHg 37%
    18:00 +15°C° 0 mm 1 mps 655 mmHg 43%
    19:00 +15°C° 0 mm 1 mps 655 mmHg 42%
    20:00 +15°C° 0 mm 1 mps 655 mmHg 42%
    21:00 +14°C° 0 mm 1 mps 655 mmHg 42%
    22:00 +14°C° 0 mm 1 mps 655 mmHg 42%
    23:00 +14°C° 0 mm 1 mps 655 mmHg 42%

    Day after tomorrow, 16 October, Wednesday

    Time Temperature Precipitation Wind Pressure Humidity
    00:00 +13°C° 0 mm 1 mps 654 mmHg 41%
    01:00 +13°C° 0 mm 1 mps 654 mmHg 41%
    02:00 +13°C° 0 mm 1 mps 654 mmHg 40%
    03:00 +13°C° 0 mm 1 mps 654 mmHg 39%
    04:00 +12°C° 0 mm 1 mps 654 mmHg 38%
    05:00 +12°C° 0 mm 1 mps 654 mmHg 38%
    06:00 +12°C° 0 mm 1 mps 654 mmHg 37%
    07:00 +14°C° 0 mm 1 mps 655 mmHg 34%
    08:00 +16°C° 0 mm 1 mps 656 mmHg 31%
    09:00 +17°C° 0 mm 0 mps 656 mmHg 28%
    10:00 +20°C° 0 mm 1 mps 657 mmHg 27%
    11:00 +21°C° 0 mm 1 mps 657 mmHg 26%
    12:00 +21°C° 0 mm 2 mps 657 mmHg 25%
    13:00 +21°C° 0 mm 2 mps 657 mmHg 26%
    14:00 +21°C° 0 mm 2 mps 656 mmHg 28%
    15:00 +20°C° 0 mm 2 mps 656 mmHg 29%
    16:00 +19°C° 0 mm 1 mps 656 mmHg 36%
    17:00 +16°C° 0 mm 1 mps 655 mmHg 43%
    18:00 +13°C° 0 mm 0 mps 655 mmHg 50%
    19:00 +12°C° 0 mm 0 mps 655 mmHg 51%
    20:00 +12°C° 0 mm 0 mps 655 mmHg 51%
    21:00 +13°C° 0 mm 1 mps 655 mmHg 52%
    22:00 +13°C° 0 mm 1 mps 655 mmHg 51%
    23:00 +12°C° 0 mm 1 mps 655 mmHg 50%

    17 October, Thursday

    Time Temperature Precipitation Wind Pressure Humidity
    00:00 +12°C° 0 mm 1 mps 655 mmHg 49%
    01:00 +12°C° 0 mm 1 mps 655 mmHg 47%
    02:00 +12°C° 0 mm 1 mps 655 mmHg 45%
    03:00 +11°C° 0 mm 1 mps 655 mmHg 43%
    04:00 +10°C° 0 mm 2 mps 655 mmHg 42%
    05:00 +10°C° 0 mm 2 mps 655 mmHg 41%
    06:00 +10°C° 0 mm 2 mps 655 mmHg 39%
    07:00 +13°C° 0 mm 1 mps 656 mmHg 37%
    08:00 +15°C° 0 mm 1 mps 656 mmHg 34%
    09:00 +18°C° 0 mm 1 mps 657 mmHg 32%
    10:00 +19°C° 0 mm 1 mps 657 mmHg 32%
    11:00 +20°C° 0 mm 1 mps 657 mmHg 32%
    12:00 +20°C° 0 mm 2 mps 657 mmHg 31%
    13:00 +20°C° 0 mm 2 mps 657 mmHg 33%
    14:00 +20°C° 0 mm 2 mps 657 mmHg 34%
    15:00 +20°C° 0 mm 2 mps 656 mmHg 36%
    16:00 +19°C° 0 mm 1 mps 656 mmHg 43%
    17:00 +16°C° 0 mm 1 mps 655 mmHg 50%
    18:00 +14°C° 0 mm 1 mps 655 mmHg 57%
    19:00 +14°C° 0 mm 1 mps 655 mmHg 54%
    20:00 +13°C° 0 mm 1 mps 655 mmHg 52%
    21:00 +13°C° 0 mm 2 mps 655 mmHg 49%
    22:00 +13°C° 0 mm 2 mps 654 mmHg 48%
    23:00 +13°C° 0 mm 2 mps 654 mmHg 46%

    18 October, Friday

    Time Temperature Precipitation Wind Pressure Humidity
    00:00 +12°C° 0 mm 2 mps 653 mmHg 44%
    01:00 +12°C° 0 mm 2 mps 653 mmHg 45%
    02:00 +12°C° 0 mm 2 mps 653 mmHg 45%
    03:00 +12°C° 0 mm 2 mps 653 mmHg 45%
    04:00 +12°C° 0 mm 2 mps 653 mmHg 46%
    05:00 +12°C° 0 mm 2 mps 653 mmHg 47%
    06:00 +12°C° 0 mm 2 mps 652 mmHg 48%
    07:00 +14°C° 0 mm 1 mps 653 mmHg 45%
    08:00 +16°C° 0 mm 1 mps 654 mmHg 41%
    09:00 +17°C° 0 mm 0 mps 655 mmHg 37%
    10:00 +20°C° 0 mm 1 mps 655 mmHg 35%
    11:00 +21°C° 0 mm 1 mps 655 mmHg 33%
    12:00 +21°C° 0 mm 2 mps 655 mmHg 31%
    13:00 +21°C° 0 mm 2 mps 654 mmHg 32%
    14:00 +21°C° 0 mm 2 mps 654 mmHg 33%
    15:00 +21°C° 0 mm 2 mps 654 mmHg 34%
    16:00 +20°C° 0 mm 1 mps 653 mmHg 40%
    17:00 +18°C° 0 mm 1 mps 653 mmHg 47%
    18:00 +14°C° 0 mm 0 mps 652 mmHg 54%
    19:00 +13°C° 0 mm 0 mps 653 mmHg 53%
    20:00 +14°C° 0 mm 1 mps 653 mmHg 53%
    21:00 +14°C° 0 mm 1 mps 653 mmHg 53%
    22:00 +13°C° 0 mm 1 mps 653 mmHg 53%
    23:00 +13°C° 0 mm 1 mps 653 mmHg 53%

    19 October, Saturday

    Time Temperature Precipitation Wind Pressure Humidity
    00:00 +12°C° 0 mm 0 mps 653 mmHg 53%
    01:00 +11°C° 0 mm 0 mps 653 mmHg 53%
    02:00 +11°C° 0 mm 0 mps 653 mmHg 53%
    03:00 +11°C° 0 mm 0 mps 653 mmHg 54%
    04:00 +11°C° 0 mm 0 mps 653 mmHg 54%
    05:00 +10°C° 0 mm 0 mps 653 mmHg 55%
    06:00 +10°C° 0 mm 0 mps 654 mmHg 55%
    07:00 +12°C° 0 mm 1 mps 654 mmHg 55%
    08:00 +14°C° 0 mm 1 mps 655 mmHg 54%
    09:00 +15°C° 0 mm 1 mps 656 mmHg 54%
    10:00 +16°C° 0.2 mm 1 mps 656 mmHg 54%
    11:00 +16°C° 0.2 mm 2 mps 656 mmHg 55%
    12:00 +17°C° 0.2 mm 2 mps 656 mmHg 55%
    13:00 +17°C° 0.1 mm 2 mps 656 mmHg 56%
    14:00 +17°C° 0.1 mm 2 mps 656 mmHg 57%
    15:00 +17°C° 0.1 mm 2 mps 656 mmHg 58%
    16:00 +16°C° 0 mm 1 mps 656 mmHg 66%
    17:00 +14°C° 0 mm 1 mps 655 mmHg 73%
    18:00 +13°C° 0 mm 1 mps 655 mmHg 81%
    19:00 +13°C° 0 mm 1 mps 655 mmHg 82%
    20:00 +12°C° 0 mm 1 mps 655 mmHg 83%
    21:00 +12°C° 0 mm 1 mps 656 mmHg 85%
    22:00 +12°C° 0.1 mm 1 mps 656 mmHg 85%
    23:00 +12°C° 0.1 mm 1 mps 656 mmHg 86%
    Show more